Hourly Data Report for October 04, 2016

All times are specified in Local Standard Time (LST). Add 1 hour to adjust for Daylight Saving Time where and when it is observed.

BATHURST A
NEW BRUNSWICK

47°37'47.000" N
65°44'20.000" W
58.80 m
8100505
71574
ZBF

Download Data

Hourly Data (October 2016)
Hourly Data Report for October 4, 2016
Temp Definition
°C
Dew Point Temp Definition
°C
Rel Hum Definition
%
Wind Dir Definition
10's deg

Wind Spd Definition
km/h
Visibility Definition
km
Stn Press Definition
kPa
Hmdx Definition


Wind Chill Definition


Weather Definition


TIME
00:00 Legend Double Dagger 1.4 -0.4 88 25 7 24.1 101.82     LegendNANA
01:00 Legend Double Dagger 0.8 -1.0 88 26 6 24.1 101.87     LegendNANA
02:00 Legend Double Dagger -0.5 -1.5 93 23 5 24.1 101.90   -2 Clear
03:00 Legend Double Dagger -0.5 -1.6 92 24 5 24.1 101.95   -2 LegendNANA
04:00 Legend Double Dagger -1.4 -2.1 95 24 4 24.1 102.03   -3 LegendNANA
05:00 Legend Double Dagger -1.9 -2.5 96 12 3 24.1 102.09   -3 Clear
06:00 Legend Double Dagger -2.6 -3.0 97 10 5 24.1 102.12   -5 LegendNANA
07:00 Legend Double Dagger -2.4 -3.0 96 25 3 24.1 102.15   -4 LegendNANA
08:00 Legend Double Dagger 1.1 -0.7 88 36 2 24.1 102.14     Clear
09:00 Legend Double Dagger 4.5 -0.1 72 12 4 24.1 102.16     LegendNANA
10:00 Legend Double Dagger 8.3 1.5 62 10 4 24.1 102.18     LegendNANA
11:00 Legend Double Dagger 11.2 1.8 52 8 5 24.1 102.16     Clear
12:00 Legend Double Dagger 12.4 2.6 51 11 8 24.1 102.14     LegendNANA
13:00 Legend Double Dagger 15.7 -2.2 29 23 18 24.1 102.03     LegendNANA
14:00 Legend Double Dagger 16.8 0.1 32 28 9 24.1 101.98     Mainly Clear
15:00 Legend Double Dagger 14.1 4.7 53 4 12 24.1 101.93     LegendNANA
16:00 Legend Double Dagger 14.4 4.5 51 7 4 24.1 101.85     LegendNANA
17:00 Legend Double Dagger 15.0 5.6 53 1 3 24.1 101.85     Mainly Clear
18:00 Legend Double Dagger 10.9 6.5 74 36 3 24.1 101.89     LegendNANA
19:00 Legend Double Dagger 6.3 5.4 94 23 5 24.1 101.92     LegendNANA
20:00 Legend Double Dagger 4.3 3.1 92 22 7 24.1 101.93     Clear
21:00 Legend Double Dagger 4.4 3.2 92 23 6 24.1 101.94     LegendNANA
22:00 Legend Double Dagger 4.3 2.7 89 22 6 24.1 101.97     LegendNANA
23:00 Legend Double Dagger 3.9 2.6 91 24 7 24.1 101.93     Clear

Notes on Data Quality.

Legend

  • E = Estimated
  • M = Missing
  • NA = Not Available
  • ‡ = Partner data that is not subject to review by the National Climate Archives
Date modified: